Wind_Speed
67 68 71 73 72 70 67 57 56 40 42 40 41 44 46 46 48 51 54 56 57 59 58 58 59 60 61 63 67 70 71 71 69 69 69 74 78 82 86 83 84 89 91 87
71 70 74 70 65 60 54 54 51 45 44 43 45 50 52 53 54 56 58 60 59 60 59 60 63 66 67 68 71 74 77 79 74 75 76 78 82 85 89 91 93 89 91 87
68 64 61 62 55 56 56 56 53 51 45 47 48 47 51 56 56 56 56 54 55 57 60 62 63 66 69 74 79 79 81 84 82 81 83 86 91 92 92 94 98 98 93 78
58 54 61 48 47 52 58 56 57 53 50 55 53 50 46 49 52 53 51 55 58 59 62 66 69 72 76 81 82 86 83 81 87 87 85 87 90 93 92 92 90 83 77 70
60 61 60 54 51 54 58 52 51 57 54 50 55 59 53 50 49 53 57 61 68 69 71 75 79 78 87 87 78 75 76 80 87 91 94 96 96 92 86 84 80 78 76 73
59 61 61 55 58 59 60 61 63 57 54 55 55 56 57 54 50 54 69 78 79 77 75 67 63 66 78 79 82 85 87 87 86 85 86 87 85 82 81 81 82 81 81 77
61 63 64 57 56 58 59 55 50 47 46 48 49 44 44 53 55 66 73 66 64 71 79 81 80 80 84 83 83 83 86 86 83 87 87 81 80 83 84 87 88 89 87 85
51 56 60 55 50 53 48 50 54 56 54 57 56 52 54 57 61 65 69 73 76 74 75 76 78 80 82 84 86 87 86 83 82 81 80 83 84 87 88 87 83 68 58 55
46 45 43 50 50 51 52 49 49 50 51 53 53 54 57 60 64 65 66 66 69 73 75 78 81 84 85 86 86 86 86 85 83 84 85 87 90 86 80 57 49 47 49 49
55 51 50 51 51 51 49 48 49 49 50 52 53 55 58 61 64 66 67 70 73 76 79 83 86 87 89 87 87 89 87 84 86 86 86 82 80 58 52 50 55 55 54 55
59 54 52 54 51 52 54 56 57 59 59 59 61 64 67 69 70 72 73 74 75 78 78 80 83 84 85 85 83 81 83 84 83 78 77 61 49 47 48 48 52 52 55 56
48 50 58 59 55 55 58 57 56 54 54 61 67 70 71 72 72 72 71 71 72 74 77 78 80 79 79 80 82 82 78 73 73 66 48 46 46 42 48 50 50 52 53 54
58 59 58 60 58 56 60 61 60 60 63 64 66 67 68 69 70 72 72 72 73 73 73 75 77 80 81 78 76 71 69 69 56 48 44 46 45 46 43 44 49 51 50 50
57 59 59 59 61 62 64 65 65 66 68 70 70 69 68 68 68 68 68 70 70 72 74 76 77 77 76 73 66 65 63 50 48 48 50 52 52 51 51 49 46 51 44 43
64 65 64 64 65 65 65 66 67 67 67 67 67 65 64 64 64 65 67 69 71 75 77 78 76 68 63 60 59 54 45 47 50 53 55 56 56 54 53 50 46 42 39 41
65 66 66 67 67 66 65 64 62 62 64 64 65 64 65 68 69 69 72 75 75 77 70 64 61 59 58 55 49 43 46 49 48 48 51 57 59 60 59 55 50 47 41 40
65 66 64 63 62 63 63 64 66 66 66 67 65 65 66 67 69 71 71 71 65 59 57 59 60 56 48 46 44 45 46 49 51 54 57 60 59 61 60 58 55 53 47 43
65 65 65 65 65 65 65 65 65 66 64 63 64 65 64 64 64 62 54 52 54 55 55 50 42 40 43 44 46 48 46 48 51 55 58 54 56 56 51 54 55 53 48 44
61 61 63 64 64 65 64 62 60 61 61 61 61 56 52 50 48 48 48 46 49 48 40 37 37 37 39 42 44 47 49 52 56 58 50 51 47 44 44 44 36 40 43 39
59 59 58 58 56 54 53 55 58 56 49 45 43 42 42 42 39 39 45 41 34 32 34 37 41 45 45 46 47 51 52 55 51 44 46 44 39 40 34 26 21 22 28 34
41 40 43 46 47 45 45 44 43 41 39 36 36 35 32 35 40 35 29 29 31 32 34 35 37 39 42 45 47 45 39 37 39 42 38 33 37 28 24 20 18 21 22 29
28 29 32 34 35 34 33 29 30 31 31 28 28 31 32 28 27 27 27 25 27 29 34 38 40 42 44 39 32 35 34 35 38 35 28 32 25 22 20 18 16 18 23 28
30 34 33 26 22 23 24 28 27 26 27 30 31 28 26 25 23 21 22 26 29 33 36 38 40 38 32 31 32 30 32 31 32 27 24 28 20 21 19 16 16 18 21 23
18 18 25 28 27 26 23 25 27 27 26 26 24 22 22 23 22 23 27 31 34 36 36 35 34 30 27 28 27 26 27 28 23 19 18 16 15 17 15 15 14 16 21 22
14 14 16 21 23 24 22 22 23 23 22 21 21 20 20 21 23 27 28 29 31 33 33 30 30 27 24 23 22 23 23 21 16 14 11 10 10 13 14 15 15 2 10 16
16 15 15 16 18 16 18 22 24 26 24 24 23 21 19 20 22 23 27 30 35 33 27 24 25 22 20 19 19 18 18 12 9 8 7 5 5 8 11 11 11 8 12 12
20 19 22 21 19 18 17 17 19 20 21 20 18 18 18 19 23 24 28 31 29 23 21 21 21 20 17 16 15 11 7 6 9 11 10 6 4 7 11 10 9 8 5 17
Wind_Direction
256 259 262 264 267 268 264 263 255 260 260 262 258 256 256 260 263 265 267 268 267 267 269 271 272 273 273 272 272 272 271 270 267 267 273 277 280 283 286 285 288 289 292 299
258 260 264 262 262 257 251 250 253 256 259 259 260 259 261 264 268 269 266 264 265 267 271 274 275 275 272 270 269 268 265 264 268 272 274 275 279 281 282 283 286 294 297 302
263 259 258 252 252 253 253 247 253 260 265 257 256 263 266 269 267 265 264 266 268 269 270 271 273 273 271 271 272 271 275 271 269 275 281 285 285 285 286 288 290 291 295 297
252 254 254 251 246 249 251 250 249 255 260 259 257 262 272 276 272 267 268 273 272 271 273 274 273 273 271 271 270 269 267 268 271 279 282 284 287 289 290 291 294 295 293 290
247 249 248 245 246 250 254 250 248 253 258 260 259 260 265 270 271 271 271 272 271 272 268 270 265 262 266 262 265 277 282 283 289 292 290 288 289 291 293 293 291 290 289 288
240 247 242 244 245 249 257 252 248 254 259 262 260 261 262 268 270 272 265 262 255 252 253 259 262 275 282 287 287 286 288 290 289 290 293 295 293 293 292 291 292 291 289 285
242 246 248 249 249 249 251 257 257 263 262 261 262 269 264 263 262 256 246 248 252 261 269 279 288 292 292 293 292 292 292 293 294 295 294 292 290 290 292 291 289 287 284 279
245 247 247 247 253 256 258 255 253 258 259 262 263 266 264 262 262 260 265 271 274 281 286 288 290 289 288 288 288 289 292 293 292 290 288 289 291 293 294 293 292 291 288 285
262 263 256 254 255 255 253 253 257 257 263 267 268 269 268 270 273 275 277 278 278 283 285 285 286 286 287 289 291 292 291 291 290 288 291 292 294 293 295 291 292 292 292 296
270 265 262 262 261 259 258 258 258 259 263 267 269 270 269 270 273 275 276 277 278 279 281 281 283 285 287 289 291 291 291 289 290 290 292 293 296 294 290 290 289 291 294 294
261 260 259 257 261 262 260 261 262 264 265 268 270 272 272 271 272 273 274 276 277 279 280 284 285 286 287 287 286 286 288 289 290 291 295 295 290 292 293 294 293 296 295 295
255 254 251 253 260 260 259 262 266 267 268 272 269 267 267 268 271 273 275 278 280 281 282 282 281 280 281 282 285 288 290 289 293 298 288 288 290 291 293 294 294 296 300 297
253 255 254 256 257 261 259 264 267 267 268 266 266 267 269 271 274 276 278 279 279 278 277 277 277 279 283 287 289 290 293 301 299 288 285 287 289 290 289 290 298 300 297 296
256 259 260 260 262 262 260 261 263 266 267 269 272 274 275 275 275 274 273 274 275 275 275 278 284 287 288 291 292 295 300 294 292 287 288 286 286 289 288 288 297 299 289 288
255 256 256 257 257 258 262 266 269 269 270 272 273 273 273 272 272 272 274 274 275 279 283 285 287 288 290 293 296 296 286 286 287 287 286 287 287 286 285 285 287 291 286 278
255 256 258 261 264 265 265 266 267 269 269 269 269 269 269 269 271 274 277 279 279 282 285 287 288 288 288 292 284 279 282 289 292 295 293 287 284 283 283 283 281 280 276 273
258 259 259 258 258 259 261 261 262 263 265 267 268 270 270 272 276 277 277 281 285 285 285 285 285 287 284 276 275 283 285 289 293 298 297 294 291 284 280 276 275 271 265 261
253 254 255 256 258 259 261 263 263 265 266 266 269 273 274 276 279 280 282 285 286 286 285 284 279 275 278 278 281 285 286 290 292 298 296 294 294 291 287 284 274 265 256 250
256 257 259 259 259 260 261 263 264 265 266 268 274 274 273 275 278 282 284 284 286 284 280 275 273 277 283 286 287 289 290 290 296 297 297 300 301 304 299 299 271 250 244 240
257 257 259 260 261 262 262 262 264 268 268 267 268 273 277 281 284 280 282 284 280 276 275 276 279 279 283 286 288 290 290 292 296 298 301 302 307 311 297 305 278 242 232 231
253 254 256 257 258 260 260 257 255 257 261 266 271 273 273 274 281 282 277 275 279 280 283 285 285 286 287 288 289 294 297 298 302 301 303 303 315 315 309 288 272 255 246 234
261 257 255 255 255 253 255 258 261 264 264 265 260 264 275 277 283 280 278 282 287 292 294 292 290 290 291 294 295 303 303 305 306 308 303 305 318 318 310 304 287 263 247 239
260 255 254 255 253 251 248 251 247 248 248 251 262 266 268 272 274 279 284 289 291 290 293 297 296 298 293 295 299 301 307 309 311 308 305 306 305 302 301 287 274 254 247 238
265 257 244 242 246 250 251 234 235 240 247 254 257 260 265 270 274 280 285 288 292 293 294 295 297 296 295 298 303 305 307 314 317 323 319 311 305 316 312 303 290 260 230 218
271 253 238 231 227 223 233 232 236 241 245 251 258 263 269 273 279 288 294 298 300 299 297 295 296 294 292 300 305 311 314 317 326 323 320 322 324 338 337 338 345 87 173 173
259 251 232 225 227 227 234 241 243 247 254 257 259 268 274 276 283 292 297 296 302 300 294 292 295 291 290 298 308 316 332 341 346 3 1 341 334 4 22 9 13 39 145 164
252 247 235 229 224 226 233 245 252 256 256 250 254 263 268 278 291 296 302 307 309 300 296 294 295 290 287 287 302 315 356 9 16 6 357 315 338 26 39 51 61 82 115 164
Height
5664 5663 5665 5668 5671 5671 5668 5676 5670 5685 5680 5683 5684 5686 5687 5690 5692 5693 5693 5693 5694 5693 5694 5695 5695 5695 5694 5692 5691 5689 5687 5684 5681 5678 5680 5677 5674 5671 5668 5664 5661 5657 5653 5648
5642 5648 5648 5647 5653 5658 5659 5661 5659 5666 5669 5673 5673 5673 5676 5679 5680 5679 5678 5678 5679 5680 5681 5681 5681 5680 5679 5677 5674 5671 5667 5663 5664 5663 5660 5657 5654 5651 5649 5646 5642 5635 5630 5624
5626 5631 5628 5622 5646 5643 5648 5649 5652 5652 5663 5660 5661 5665 5666 5666 5665 5662 5663 5664 5665 5664 5664 5663 5663 5662 5660 5658 5656 5652 5651 5648 5644 5643 5641 5638 5637 5634 5629 5624 5619 5616 5609 5605
5609 5612 5605 5622 5629 5630 5631 5637 5639 5642 5647 5647 5649 5650 5651 5650 5650 5651 5651 5650 5649 5649 5649 5647 5645 5643 5640 5637 5635 5632 5628 5627 5626 5623 5622 5619 5616 5610 5604 5598 5594 5591 5589 5586
5593 5595 5598 5608 5615 5614 5613 5625 5627 5627 5631 5633 5635 5637 5638 5637 5636 5637 5636 5635 5635 5633 5632 5630 5629 5627 5625 5619 5616 5614 5608 5608 5604 5601 5600 5596 5592 5585 5579 5572 5569 5566 5566 5565
5578 5578 5583 5603 5603 5601 5598 5606 5613 5615 5616 5618 5620 5621 5624 5624 5623 5620 5620 5620 5618 5614 5614 5612 5609 5607 5604 5601 5597 5594 5592 5588 5583 5577 5571 5565 5560 5556 5552 5545 5544 5542 5539 5540
5567 5564 5572 5588 5585 5587 5587 5606 5604 5601 5600 5600 5603 5609 5608 5604 5606 5605 5604 5601 5599 5597 5594 5592 5589 5587 5585 5580 5576 5573 5570 5566 5560 5553 5547 5541 5538 5533 5528 5524 5519 5515 5513 5512
5553 5553 5559 5572 5573 5576 5582 5582 5583 5583 5585 5585 5586 5590 5591 5589 5589 5590 5588 5585 5583 5581 5577 5575 5573 5572 5568 5563 5559 5555 5551 5545 5540 5533 5527 5520 5513 5509 5502 5496 5490 5486 5481 5480
5543 5546 5552 5554 5559 5561 5563 5568 5568 5569 5571 5572 5571 5573 5573 5573 5571 5569 5569 5569 5566 5564 5561 5558 5555 5553 5549 5543 5539 5535 5531 5525 5519 5514 5506 5498 5491 5485 5479 5474 5470 5466 5464 5460
5529 5535 5538 5541 5545 5548 5551 5553 5554 5556 5557 5557 5557 5557 5556 5555 5555 5554 5553 5551 5550 5549 5546 5541 5536 5532 5528 5523 5517 5514 5509 5505 5498 5492 5486 5477 5469 5463 5461 5461 5454 5449 5445 5441
5515 5521 5525 5528 5531 5533 5534 5536 5538 5540 5542 5542 5543 5542 5540 5539 5538 5536 5533 5531 5529 5527 5524 5519 5512 5509 5504 5498 5495 5493 5489 5484 5478 5470 5463 5456 5452 5449 5445 5443 5437 5433 5429 5422
5505 5508 5510 5512 5514 5517 5518 5521 5522 5524 5524 5526 5525 5523 5521 5519 5517 5516 5513 5511 5510 5507 5505 5500 5494 5489 5484 5480 5477 5473 5469 5463 5456 5449 5445 5440 5437 5436 5431 5428 5424 5418 5412 5406
5488 5490 5494 5496 5499 5501 5503 5504 5505 5506 5506 5505 5504 5503 5502 5500 5498 5497 5495 5492 5489 5487 5484 5480 5476 5472 5467 5462 5457 5452 5446 5440 5437 5433 5430 5426 5423 5420 5420 5415 5408 5404 5398 5392
5470 5473 5478 5482 5484 5485 5486 5487 5489 5490 5489 5488 5486 5485 5483 5481 5479 5477 5475 5472 5469 5467 5464 5460 5456 5451 5446 5441 5435 5430 5427 5426 5423 5420 5415 5412 5409 5406 5403 5401 5397 5391 5386 5381
5454 5457 5460 5463 5466 5469 5470 5471 5472 5472 5469 5468 5467 5466 5465 5463 5461 5459 5457 5453 5451 5448 5445 5440 5435 5430 5426 5423 5419 5417 5414 5413 5410 5406 5402 5397 5393 5390 5387 5385 5382 5380 5375 5371
5437 5440 5445 5446 5448 5450 5452 5453 5454 5453 5452 5450 5449 5448 5448 5446 5443 5441 5438 5436 5434 5431 5426 5422 5418 5414 5410 5409 5407 5405 5403 5400 5395 5391 5387 5382 5376 5372 5369 5367 5365 5364 5363 5361
5418 5424 5426 5429 5430 5432 5434 5435 5436 5436 5436 5435 5433 5431 5430 5428 5426 5423 5420 5418 5415 5412 5409 5406 5404 5401 5398 5395 5395 5394 5391 5387 5381 5376 5370 5364 5357 5352 5347 5344 5344 5344 5346 5347
5403 5405 5409 5412 5413 5415 5417 5418 5419 5420 5419 5417 5416 5415 5413 5411 5409 5407 5404 5403 5400 5398 5395 5392 5389 5388 5387 5385 5383 5381 5377 5373 5368 5361 5354 5347 5339 5331 5325 5320 5318 5320 5325 5329
5386 5389 5389 5392 5395 5396 5398 5400 5401 5402 5401 5401 5400 5399 5398 5396 5395 5393 5392 5389 5387 5385 5382 5380 5379 5378 5376 5373 5370 5367 5363 5359 5353 5345 5338 5331 5324 5314 5307 5296 5290 5295 5303 5311
5369 5372 5373 5374 5376 5379 5381 5383 5384 5385 5385 5386 5387 5387 5386 5385 5384 5382 5380 5377 5375 5374 5373 5372 5370 5368 5365 5361 5358 5354 5349 5343 5337 5330 5324 5317 5311 5302 5295 5288 5284 5287 5293 5300
5355 5356 5358 5359 5362 5364 5366 5369 5371 5373 5375 5377 5377 5375 5376 5375 5373 5371 5369 5369 5367 5365 5363 5361 5359 5356 5353 5350 5346 5341 5335 5329 5323 5318 5311 5306 5300 5292 5287 5284 5283 5285 5288 5293
5345 5347 5348 5350 5352 5354 5357 5359 5362 5365 5366 5366 5367 5367 5367 5365 5364 5363 5362 5361 5359 5356 5354 5352 5349 5345 5341 5338 5334 5329 5325 5319 5313 5307 5302 5299 5293 5287 5284 5281 5280 5280 5283 5286
5336 5338 5340 5342 5344 5346 5349 5352 5354 5356 5357 5359 5359 5359 5358 5357 5357 5356 5355 5352 5350 5348 5345 5342 5338 5333 5330 5327 5324 5320 5316 5311 5304 5299 5295 5292 5287 5284 5280 5278 5277 5276 5277 5279
5331 5331 5332 5335 5338 5340 5342 5343 5346 5348 5349 5350 5351 5351 5351 5350 5349 5349 5348 5346 5343 5340 5336 5332 5328 5324 5322 5319 5316 5313 5309 5304 5298 5294 5290 5286 5284 5280 5277 5273 5271 5268 5268 5270
5326 5326 5327 5329 5330 5332 5335 5337 5339 5341 5343 5343 5344 5344 5344 5343 5343 5342 5340 5337 5334 5330 5326 5323 5320 5317 5315 5313 5310 5307 5302 5298 5295 5291 5287 5285 5282 5280 5276 5272 5267 5264 5267 5269
5322 5322 5323 5325 5327 5328 5330 5332 5333 5335 5335 5336 5337 5337 5337 5337 5336 5335 5333 5329 5326 5321 5317 5315 5313 5310 5309 5307 5305 5302 5299 5295 5292 5289 5287 5285 5283 5281 5278 5275 5272 5269 5274 5277
5315 5316 5318 5320 5321 5323 5324 5326 5327 5328 5328 5329 5330 5330 5330 5330 5329 5328 5325 5322 5316 5312 5310 5308 5306 5304 5303 5302 5301 5299 5297 5295 5293 5291 5288 5286 5284 5282 5281 5279 5278 5277 5278 5281